sat.trackr.live / text

‹ back to catalog

STARLINK-2411

NORAD 47826 · 2021-018AR

PAYLOAD ACTIVE UNKNOWN

§ Identity

Operator
Country
US
Launch date
2021-03-11
Launch site
AFETR
Launch vehicle
Mass (kg)
RCS (m²)

Purposes: comms

External: N2YO · Heavens-Above · Gunter

§ Orbital elements

Epoch: 2026-09-04T03:00:06.276960Z

Period
94.01 min
Inclination
53.1603°
Eccentricity
0.0001313
Mean motion
15.31699736 rev/d
Perigee alt
469.8 km
Apogee alt
471.6 km
Semi-major
6,848.9 km
B*
5.5266e-6
RAAN
135.0067°
Arg perigee
81.1965°
Mean anomaly
278.9185°
Rev number
30,403

§ Raw data

STARLINK-24111 47826U 21018AR  26247.12507265 -.00000194  00000+0  55266-5 0  99912 47826  53.1603 135.0067 0001313  81.1965 278.9185 15.31699736304037

JSON: /api/v1/satellites/47826 · /tle

For live sub-satellite position, see the globe view (requires WebGL).

§ Visibility from observer

Set your observer location to see the next 7 days of passes ≥ 10°. The values pass through the URL so the page stays shareable.

No JS? Fill the form by hand. The geolocation button needs JavaScript.